Weather History for KHHF - February, 2014

Change the Weather History Date:

Sunday, February 23, 2014

  Actual Average (KPPA) Record (KPPA)
Temperature  
Mean Temperature 39 °F -  
Max Temperature 49 °F 54 °F - (-1)
Min Temperature 29 °F 27 °F - (-1)
Degree Days  
Heating Degree Days 26    
Moisture  
Dew Point 23 °F    
Average Humidity 58    
Maximum Humidity 89    
Minimum Humidity 34    
Precipitation  
Precipitation 0.00 in - - ()
Sea Level Pressure  
Sea Level Pressure 30.10 in    
Wind  
Wind Speed 7 mph (ENE)    
Max Wind Speed 16 mph    
Max Gust Speed 22 mph    
Visibility 10 miles    
Events      
Averages and records for this station are not official NWS values.
T = Trace of Precipitation, MM = Missing Value Source: NWS Daily Summary

Daily Weather History Graph

Daily Weather History Graph

Search for Another Location

Airport or City:

Trip Planner

Search our weather history database for the weather conditions in past years. The results will help you decide how hot, cold, wet, or windy it might be!

Date:

Astronomy

Feb. 23, 2014 Rise Set
Actual Time 7:19 AM CST 6:31 PM CST
Civil Twilight 6:53 AM CST 6:56 PM CST
Nautical Twilight 6:23 AM CST 7:26 PM CST
Astronomical Twilight 5:54 AM CST 7:56 PM CST
Moon 2:13 AM CST (2/23) 12:41 PM CST (2/23)
Length of Visible Light 12h 03m
Length of Day
11h 11m
Last Quarter, 38% of the Moon is Illuminated
Feb 23
Last Quarter
Mar 1
New
Mar 8
First Quarter
Mar 16
Full
Mar 23
Last Quarter

Hourly Weather History & Observations

Time (CST) Temp. Windchill Dew Point Humidity Pressure Visibility Wind Dir Wind Speed Gust Speed Precip Events Conditions
12:15 AM 37.9 °F - 19.4 °F 47% 29.87 in 10.0 mi Calm Calm - N/A   Clear
12:35 AM 34.0 °F 28.0 °F 20.3 °F 57% 29.88 in 10.0 mi North 6.9 mph - N/A   Clear
12:55 AM 34.7 °F - 20.7 °F 57% 29.88 in 10.0 mi Calm Calm - N/A   Clear
1:15 AM 35.8 °F - 20.5 °F 54% 29.89 in 10.0 mi Calm Calm - N/A   Clear
1:35 AM 35.1 °F - 20.8 °F 56% 29.90 in 10.0 mi Calm Calm - N/A   Clear
1:55 AM 34.7 °F - 21.2 °F 58% 29.91 in 10.0 mi Calm Calm - N/A   Clear
2:15 AM 33.6 °F - 21.4 °F 61% 29.91 in 10.0 mi Calm Calm - N/A   Clear
2:35 AM 31.3 °F - 19.8 °F 62% 29.92 in 10.0 mi Calm Calm - N/A   Clear
2:55 AM 30.9 °F - 20.1 °F 64% 29.92 in 10.0 mi Calm Calm - N/A   Clear
3:15 AM 31.6 °F - 20.7 °F 64% 29.92 in 10.0 mi Calm Calm - N/A   Clear
3:35 AM 32.2 °F - 21.4 °F 64% 29.94 in 10.0 mi Calm Calm - N/A   Clear
3:55 AM 34.3 °F 27.7 °F 23.9 °F 66% 29.95 in 10.0 mi NNE 8.1 mph - N/A   Clear
4:15 AM 34.9 °F 26.6 °F 27.5 °F 74% 29.97 in 10.0 mi NNE 11.5 mph 21.9 mph N/A   Clear
4:35 AM 33.8 °F 24.8 °F 29.3 °F 84% 29.98 in 10.0 mi NNE 12.7 mph 17.3 mph N/A   Clear
4:55 AM 33.8 °F 27.7 °F 30.7 °F 89% 29.99 in 10.0 mi NNE 6.9 mph - N/A   Mostly Cloudy
5:15 AM 33.8 °F 24.8 °F 30.2 °F 87% 30.01 in 10.0 mi NE 12.7 mph 18.4 mph N/A   Overcast
5:35 AM 33.4 °F 25.4 °F 29.8 °F 87% 30.02 in 10.0 mi NE 10.4 mph - N/A   Overcast
5:55 AM 32.9 °F 23.2 °F 29.1 °F 86% 30.03 in 10.0 mi NE 13.8 mph 21.9 mph N/A   Overcast
6:15 AM 32.2 °F 21.8 °F 28.4 °F 86% 30.05 in 10.0 mi NE 15.0 mph 19.6 mph N/A   Overcast
6:35 AM 32.2 °F 21.4 °F 28.0 °F 85% 30.07 in 10.0 mi NNE 16.1 mph 20.7 mph N/A   Overcast
6:55 AM 32.0 °F 22.1 °F 27.0 °F 82% 30.09 in 10.0 mi NNE 13.8 mph 21.9 mph N/A   Overcast
7:15 AM 30.9 °F 22.8 °F 26.2 °F 83% 30.09 in 10.0 mi NE 9.2 mph 12.7 mph N/A   Mostly Cloudy
7:35 AM 30.0 °F 21.7 °F 26.1 °F 85% 30.11 in 10.0 mi NNE 9.2 mph - N/A   Mostly Cloudy
7:55 AM 29.3 °F 19.6 °F 25.7 °F 86% 30.12 in 10.0 mi NNE 11.5 mph - N/A   Scattered Clouds
8:15 AM 30.0 °F 20.5 °F 25.7 °F 84% 30.12 in 10.0 mi NNE 11.5 mph 16.1 mph N/A   Clear
8:35 AM 30.7 °F 22.0 °F 24.8 °F 79% 30.13 in 10.0 mi NNE 10.4 mph - N/A   Clear
8:55 AM 31.8 °F 23.3 °F 23.9 °F 73% 30.14 in 10.0 mi NNE 10.4 mph - N/A   Clear
9:15 AM 32.2 °F 22.3 °F 23.0 °F 69% 30.15 in 10.0 mi NNE 13.8 mph 19.6 mph N/A   Clear
9:35 AM 33.4 °F 24.3 °F 22.3 °F 64% 30.16 in 10.0 mi NNE 12.7 mph 17.3 mph N/A   Clear
9:55 AM 34.7 °F 26.4 °F 22.1 °F 60% 30.17 in 10.0 mi NNE 11.5 mph 17.3 mph N/A   Clear
10:15 AM 35.2 °F 26.6 °F 21.6 °F 58% 30.17 in 10.0 mi NNE 12.7 mph - N/A   Clear
10:35 AM 36.5 °F 27.4 °F 21.2 °F 54% 30.18 in 10.0 mi NE 15.0 mph 19.6 mph N/A   Clear
10:55 AM 37.4 °F 29.3 °F 21.0 °F 52% 30.19 in 10.0 mi NE 12.7 mph 19.6 mph N/A   Clear
11:15 AM 38.1 °F 29.5 °F 20.8 °F 50% 30.19 in 10.0 mi NNE 15.0 mph 19.6 mph N/A   Clear
11:35 AM 39.7 °F 32.3 °F 21.0 °F 47% 30.19 in 10.0 mi NE 12.7 mph 20.7 mph N/A   Clear
11:55 AM 41.2 °F 34.1 °F 21.4 °F 45% 30.19 in 10.0 mi NNE 12.7 mph - N/A   Clear
12:15 PM 42.1 °F 34.5 °F 21.0 °F 43% 30.18 in 10.0 mi North 15.0 mph 19.6 mph N/A   Clear
12:35 PM 42.6 °F 36.3 °F 21.0 °F 42% 30.18 in 10.0 mi NE 11.5 mph 17.3 mph N/A   Clear
12:55 PM 43.7 °F 38.6 °F 21.2 °F 41% 30.17 in 10.0 mi NE 9.2 mph - N/A   Clear
1:15 PM 44.6 °F 38.8 °F 21.0 °F 39% 30.17 in 10.0 mi NE 11.5 mph 19.6 mph N/A   Clear
1:35 PM 44.6 °F 40.2 °F 21.2 °F 39% 30.16 in 10.0 mi NNE 8.1 mph 16.1 mph N/A   Clear
1:55 PM 45.5 °F 39.9 °F 21.6 °F 39% 30.16 in 10.0 mi ENE 11.5 mph - N/A   Clear
2:15 PM 46.4 °F 41.9 °F 21.4 °F 37% 30.15 in 10.0 mi NNE 9.2 mph 16.1 mph N/A   Clear
2:35 PM 47.1 °F - 21.7 °F 37% 30.14 in 10.0 mi ENE 10.4 mph - N/A   Clear
2:55 PM 48.2 °F - 22.1 °F 36% 30.13 in 10.0 mi East 10.4 mph - N/A   Clear
3:15 PM 48.0 °F - 22.3 °F 36% 30.13 in 10.0 mi East 10.4 mph - N/A   Clear
3:35 PM 48.6 °F - 22.1 °F 35% 30.12 in 10.0 mi East 6.9 mph - N/A   Clear
3:55 PM 49.3 °F - 22.3 °F 35% 30.12 in 10.0 mi ENE 9.2 mph - N/A   Clear
4:15 PM 49.1 °F - 22.3 °F 35% 30.12 in 10.0 mi East 8.1 mph 19.6 mph N/A   Clear
4:35 PM 49.6 °F - 22.5 °F 34% 30.12 in 10.0 mi ENE 9.2 mph - N/A   Clear
4:55 PM 49.3 °F - 22.6 °F 35% 30.12 in 10.0 mi ENE 9.2 mph - N/A   Clear
5:15 PM 48.6 °F - 22.3 °F 36% 30.12 in 10.0 mi ENE 11.5 mph - N/A   Clear
5:35 PM 47.3 °F - 22.1 °F 37% 30.12 in 10.0 mi ENE 9.2 mph 16.1 mph N/A   Clear
5:55 PM 46.6 °F - 22.1 °F 38% 30.12 in 10.0 mi East 8.1 mph - N/A   Clear
6:15 PM 45.5 °F 41.8 °F 22.5 °F 40% 30.13 in 10.0 mi East 6.9 mph - N/A   Clear
6:40 PM 43.2 °F 39.7 °F 21.9 °F 43% 30.13 in 10.0 mi East 5.8 mph - N/A   Clear
6:55 PM 42.1 °F 40.2 °F 22.1 °F 45% 30.15 in 10.0 mi East 3.5 mph - N/A   Clear
7:15 PM 40.5 °F 37.3 °F 22.1 °F 48% 30.16 in 10.0 mi East 4.6 mph - N/A   Clear
7:35 PM 38.5 °F 33.4 °F 22.1 °F 52% 30.15 in 10.0 mi East 6.9 mph - N/A   Clear
7:55 PM 37.9 °F 32.1 °F 22.5 °F 54% 30.15 in 10.0 mi East 8.1 mph - N/A   Clear
8:15 PM 37.4 °F 32.1 °F 22.5 °F 55% 30.16 in 10.0 mi East 6.9 mph - N/A   Clear
8:35 PM 36.0 °F 31.1 °F 22.6 °F 58% 30.17 in 10.0 mi ESE 5.8 mph - N/A   Clear
8:55 PM 34.7 °F 29.6 °F 22.5 °F 61% 30.18 in 10.0 mi ESE 5.8 mph - N/A   Clear
9:15 PM 34.7 °F 28.8 °F 23.0 °F 62% 30.18 in 10.0 mi ESE 6.9 mph - N/A   Clear
9:35 PM 32.9 °F 26.7 °F 22.5 °F 65% 30.19 in 10.0 mi ESE 6.9 mph - N/A   Clear
9:55 PM 33.3 °F 26.4 °F 22.6 °F 65% 30.19 in 10.0 mi ESE 8.1 mph - N/A   Clear
10:20 PM 32.0 °F 26.4 °F 22.1 °F 67% 30.19 in 10.0 mi ESE 5.8 mph - N/A   Clear
10:35 PM 32.2 °F 25.8 °F 22.6 °F 68% 30.20 in 10.0 mi ESE 6.9 mph - N/A   Clear
10:55 PM 32.2 °F 25.8 °F 23.0 °F 69% 30.19 in 10.0 mi ESE 6.9 mph - N/A   Clear
11:15 PM 31.6 °F 27.0 °F 22.6 °F 69% 30.19 in 10.0 mi East 4.6 mph - N/A   Clear
11:35 PM 30.7 °F 26.0 °F 22.3 °F 71% 30.19 in 10.0 mi East 4.6 mph - N/A   Clear
11:55 PM 30.7 °F 24.9 °F 22.6 °F 72% 30.17 in 10.0 mi ESE 5.8 mph - N/A   Clear